Find Starlink 2395

NORAD ID: 47814 Int'l Des: 2021-018 Owner: SPXS Country: US Constellation: starlink operational
LEOCIRCULAR

現在のビュー

3D地球を読み込み中...

About Starlink 2395

Starlink 2395 (NORAD 47814) is a starlink constellation satellite (v1.0) launched Mar 11, 2021 by SPXS of US. It operates in LEO, CIRCULAR orbit with a mass of 260.00 kg.

次回通過

Passes for default location (London). Set your location on the main map for personalized predictions.

高度履歴

Loading altitude history...

軌道要素

1 47814U 21018AD 26265.87685177 .00033662 00000-0 97388-3 0 9994
2 47814 53.1566 44.4456 0000428 353.1714 6.9283 15.35326288307019
Epoch: Sep 22, 2026 • Age: 11 hours

現在のステータス

高度 466.5 km
遠地点 / 近地点 N/A
速度 7.64 km/s
衛星直下点 53.31°N, 4.72°E
打ち上げ日 Mar 11, 2021
運用期間 5.5 years
タイプ internet

技術仕様

分類 Payload
質量 260.00 kg
乾燥質量 248.00 kg
長さ 0.20 m
スパン 9.00 m
形状 ? Box + pan
製造者 SPXS
バスタイプ Starlink
フェーズステータス In Orbit
所有者/国 SPXS/US

Most Searched